Location: Huesca
(42.1318°N, 0.4078°W)
Time: 23:44:22
(UTC+02:00)

ITAMSAT 1 - Visible Passes

Search period start: 24 April 2024 00:00
Search period end: 04 May 2024 00:00
Orbit: 783 x 795 km, 98.8° (Epoch: 23 April)

Date Brightness Start Highest point End Pass type
(mag) Time Alt. Az. Time Alt. Az. Time Alt. Az.
24 Apr 8.4 21:37:12 10° SE 21:41:55 35° ENE 21:46:38 10° N visible
24 Apr 9.3 23:17:38 14° SSW 23:21:20 30° W 23:25:53 10° NW visible
25 Apr 8.2 22:47:20 17° S 22:51:20 56° W 22:56:29 10° NNW visible
26 Apr 7.6 22:17:02 15° SSE 22:21:27 79° ENE 22:26:42 10° NNW visible
26 Apr 10.2 23:59:14 10° WSW 00:01:27 13° W 00:03:42 10° WNW visible
27 Apr 8.2 21:46:48 10° SE 21:51:42 43° ENE 21:56:37 10° N visible
27 Apr 9.6 23:27:25 11° SW 23:31:16 24° W 23:35:29 10° NW visible
28 Apr 8.6 22:57:07 15° SSW 23:01:12 45° W 23:06:14 10° NNW visible
29 Apr 7.7 22:26:48 14° SSE 22:31:17 85° WSW 22:36:33 10° NNW visible
30 Apr 7.9 21:56:30 10° SE 22:01:29 52° ENE 22:06:33 10° N visible
30 Apr 9.8 23:37:26 10° SW 23:41:12 20° W 23:44:59 10° NW visible
01 May 8.7 21:27:24 10° ESE 21:31:49 29° ENE 21:36:15 10° N visible
01 May 8.9 23:06:53 13° SSW 23:11:05 37° W 23:15:56 10° NNW visible
02 May 7.9 22:36:34 14° S 22:41:07 70° WSW 22:46:21 10° NNW visible
03 May 7.7 22:06:16 11° SSE 22:11:17 63° ENE 22:16:27 10° N visible
03 May 10.0 23:47:56 10° SW 23:51:08 16° W 23:54:21 10° NW visible
